Regional Weather Roundup
Issued by NWS Sterling, VA

Home | Current Version | Previous Version | Text Only | Print | Product List | Glossary Off
Versions: 1 2 3 4 5 6 7 8 9 10 11 12 13 14 15 16 17 18 19 20 21 22 23 24 25 26 27

000
ASUS41 KLWX 171710
RWRLWX

REGIONAL WEATHER ROUNDUP
NATIONAL WEATHER SERVICE BALTIMORE MD/WASHINGTON DC
100 PM EDT THU APR 17 2014

Note: "FAIR" indicates few or no clouds below 12,000 feet
with no significant weather and/or obstructions to visibility.
 TC=TEMPERATURE CELSIUS

 * =Non NWS site. Station does not report precipitation (e.g. rain,
    snow, etc.), thunder, or fog.

DCZ001-MDZ009-015-VAZ040>042-051-053>054-171800-
WASHINGTON METRO

CITY           SKY/WX    TMP DP  RH WIND       PRES   REMARKS
WASHINGTON NAT PTSUNNY   53  32  44 E10       30.64F
DULLES         MOSUNNY   50  28  42 VRB6      30.61F
ANDREWS AFB    MOSUNNY   50  33  52 E10G18    30.62F
FT BELVOIR     SUNNY     53  31  43 VRB3      30.63F
QUANTICO       MOSUNNY   52  32  46 SE7       30.63F
COLLEGE PARK*  MOSUNNY   52  32  46 E10       30.64F
LEESBURG*      SUNNY     52  30  43 SE9       30.62F
MANASSAS*        N/A    N/A N/A N/A MISG        N/A
GAITHERSBURG*  SUNNY     52  28  40 SE9       30.64F

$$

MDZ006>007-011-014-171800-
BALTIMORE METRO

CITY           SKY/WX    TMP DP  RH WIND       PRES   REMARKS
BWI AIRPORT    PTSUNNY   50  31  48 SE9       30.63F
MD SCIENCE CTR   N/A     51  32  48 MISG      30.68S
MARTIN STATE   MOSUNNY   52  36  54 E9        30.67F
ANNAPOLIS      CLOUDY    48  34  58 SE12      30.65F
FORT MEADE*    PTSUNNY   50  32  50 NE7       30.65F

$$

MDZ012-015-019>023-171800-
MARYLAND EASTERN SHORE

CITY           SKY/WX    TMP DP  RH WIND       PRES   REMARKS
OCEAN CITY     CLOUDY    47  34  60 E14G21    30.66F
SALISBURY      CLOUDY    50  33  52 E9G21     30.64F
BAY BRIDGE AP* PTSUNNY   50  30  46 E9G16     30.65F
CAMBRIDGE*     PTSUNNY   52  32  46 E10       30.64F
EASTON*        PTSUNNY   52  34  50 E9G16     30.68F

$$

MDZ017>025-171800-
SOUTHERN MARYLAND

CITY           SKY/WX    TMP DP  RH WIND       PRES   REMARKS
PATUXENT RIVER MOSUNNY   50  32  50 E10       30.64F
ST INIGOES     PTSUNNY   50  33  52 E13       30.63F
LEONARDTOWN*   MOSUNNY   50  32  50 E9G17     30.64F

$$

MDZ003>005-171800-
NORTH CENTRAL MARYLAND

CITY           SKY/WX    TMP DP  RH WIND       PRES   REMARKS
FREDERICK*     SUNNY    N/A N/A N/A SE6G17    30.65F
HAGERSTOWN APT SUNNY     50  23  34 S9        30.59F
WESTMINSTER*   SUNNY     52  27  37 S13       30.61F

$$

MDZ501>502-171800-
WESTERN MARYLAND

CITY           SKY/WX    TMP DP  RH WIND       PRES   REMARKS
OAKLAND*       MOSUNNY   45  12  26 SE14G21   30.45F
CUMBERLAND*    MOSUNNY   54  25  32 SE12      30.59F

$$

VAZ025>031-171800-
SHENANDOAH VALLEY

CITY           SKY/WX    TMP DP  RH WIND       PRES   REMARKS
WINCHESTER*    SUNNY     50  28  43 SE9       30.59F
STAUNTON*      SUNNY     49  21  34 SW6       30.57F

$$

WVZ021-048>050-054>055-171800-
EASTERN WEST VIRGINIA PANHANDLE

CITY           SKY/WX    TMP DP  RH WIND       PRES   REMARKS
MARTINSBURG    SUNNY     51  24  34 S10G16    30.60F
PETERSBURG*    SUNNY     57  32  39 E8        30.54F

$$

VAZ036>039-050-171800-
CENTRAL FOOTHILLS

CITY           SKY/WX    TMP DP  RH WIND       PRES   REMARKS
CHARLOTTESVILL SUNNY     52  26  36 MISG      30.58F
CULPEPER*      SUNNY     55  25  30 E5        30.61F

$$

VAZ055>057-171800-
NORTH AND CENTRAL PIEDMONT

CITY           SKY/WX    TMP DP  RH WIND       PRES   REMARKS
FREDERICKSBRG* SUNNY     54  32  43 SE12      30.61F
STAFFORD*      SUNNY     53  33  46 E9        30.65F

$$

NCZ024-NYZ072-PAZ021-071-VAZ022-071-171800-
OTHER REGIONAL OBSERVATIONS

CITY           SKY/WX    TMP DP  RH WIND       PRES   REMARKS
NEW YORK CITY  MOSUNNY   47  25  42 NE7       30.73F
PHILADELPHIA   MOSUNNY   52  26  36 E9G17     30.68F
PITTSBURGH     CLOUDY    56  23  27 S8        30.43F
ROANOKE        PTSUNNY   49  25  39 VRB5      30.56F
RICHMOND       CLOUDY    56  32  40 NE7G17    30.58F
RALEIGH        PTSUNNY   55  28  35 NE7       30.53F

$$

ANZ530>537-171800-
MARINE OBSERVATIONS

STATION/POSITION TIME  TEMP    WIND        PRES
                       AIR SEA DIR/SP/G
                 (UTC) (F)     (DEG/KT/KT) (MB)
THOMAS PT LIGHT  1700   46 52   90/  9/ 11 1038.3F
BALT KEY BRIDGE  1700   46     120/  8/ 10 1038.1F
COVE POINT       1700   46      90/  9/ 11 1037.4F
LEWISETTA        1700   46 52  100/ 14/ 17 1037.0F
SOLOMONS ISLAND  1700      51                N/A
PINEY POINT      1700          120/ 11/ 12   N/A

$$




USA.gov is the U.S. government's official web portal to all federal, state and local government web resources and services.